Regional Weather Roundup
Issued by NWS

Home | Current Version | Previous Version | Graphics & Text | Print | Product List | Glossary On
Versions: 1 2 3 4 5 6 7 8 9 10 11 12 13 14 15 16 17 18 19 20 21 22 23 24 25 26 27 28 29 30 31 32 33 34 35 36 37 38 39 40 41 42 43 44 45 46 47 48 49 50
000
ASUS45 KBOU 281707
RWRCO

WEATHER ROUNDUP FOR COLORADO
NATIONAL WEATHER SERVICE DENVER/BOULDER CO
1100 AM MDT THU MAY 28 2015

NOTE: "FAIR" INDICATES FEW OR NO CLOUDS BELOW 12000 FEET WITH NO
SIGNIFICANT WEATHER AND/OR OBSTRUCTIONS TO VISIBILITY.

COZ001>005-013-030-031-281800-
...NORTHWEST COLORADO...

CITY           SKY/WX    TMP DP  RH WIND       PRES   REMARKS
CRAIG          SUNNY     61  42  49 W9        30.17F
HAYDEN         MOSUNNY   54  39  58 W7        30.18S
MEEKER         MOSUNNY   58  42  55 S3        30.18F
MOUNT WERNER   NOT AVBL
STEAMBOAT SPGS MOSUNNY   55  42  61 S5        30.19S
WALDEN         PTSUNNY   54  36  50 SW13G22   30.20F
$$

COZ006>008-011-281800-
...WEST CENTRAL VALLEYS...

CITY           SKY/WX    TMP DP  RH WIND       PRES   REMARKS
GRAND JUNCTION SUNNY     63  46  54 CALM      30.12F
MONTROSE       SUNNY     65  41  41 VRB3      30.16F
EAGLE          MOSUNNY   61  45  55 SW5       30.19F
RIFLE          SUNNY     61  47  59 VRB3      30.15F
DELTA          SUNNY     67  43  41 SW3       30.15S
NUCLA          SUNNY     64  37  36 NE3       30.20S
$$

COZ017>023-064>068-281800-
...SOUTHWEST COLORADO...

CITY           SKY/WX    TMP DP  RH WIND       PRES   REMARKS
DURANGO        SUNNY     67  37  33 W8        30.17F
CORTEZ         SUNNY     70  40  33 VRB3      30.15S
PAGOSA SPRINGS SUNNY     64  31  29 SW6       30.22S
TELLURIDE      PTSUNNY   54  33  44 W9        30.31S
WOLF CREEK PAS NOT AVBL
$$

COZ009-010-012-014-032>034-037-058>063-281800-
...CENTRAL COLORADO...

CITY           SKY/WX    TMP DP  RH WIND       PRES   REMARKS
ASPEN          PTSUNNY   56  41  57 NE9       30.20F
BUENA VISTA    PTSUNNY   60  32  34 E3        30.20S
COPPER MTN     PTSUNNY   41  27  56 SW22G32   30.38S
BERTHOUD PASS  PTSUNNY   32  27  80 W24       30.39S WCI  19
COTTONWOOD PAS MOSUNNY   55  23  28 W10G23    30.29S
GUNNISON       SUNNY     54  39  58 CALM      30.25F
KREMMLING      PTSUNNY   54  39  58 CALM      30.21F
LEADVILLE      LGT RAIN  43  31  62 CALM      30.29R
MONARCH PASS   PTSUNNY   37  28  70 W25G45    30.50S
SALIDA         MOSUNNY   63  37  39 N7        30.24F
SUNLIGHT       PTSUNNY   45  36  70 CALM      30.38R
WILKERSON PASS PTSUNNY   46  28  49 SW9G16    30.37F
$$

COZ069>075-281800-
...SAN LUIS VALLEY/SANGRE DE CRISTO MOUNTAINS...

CITY           SKY/WX    TMP DP  RH WIND       PRES   REMARKS
ALAMOSA        MOSUNNY   63  33  32 VRB3      30.19F
LA VETA PASS   MOSUNNY  N/A N/A N/A MISG      30.33S
SAGUACHE       PTSUNNY   57  37  47 S8        30.22S
$$

COZ035-036-038>040-281800-
...NORTHERN COLORADO FRONT RANGE...

CITY           SKY/WX    TMP DP  RH WIND       PRES   REMARKS
DENVER INTL AP PTSUNNY   70  43  37 NW5       30.05F
DMNS CITY PARK   N/A     70  43  38 E3G13     30.04F
AURORA         PTSUNNY   66  43  42 E6        30.07F
FRONT RANGE AP PTSUNNY   68  48  49 N6        30.07S
ERIE MUNI ARPT MOSUNNY   69  44  41 CALM      30.03F
BOULDER MUN AP MOSUNNY   68  45  42 E6        30.03S
CENTENNIAL     PTSUNNY   67  45  45 E7        30.07F
BROOMFIELD     PTSUNNY   68  43  40 CALM      30.06F
FORT COLLINS   MOSUNNY   68  45  42 S3        30.04S
LONGMONT       MOSUNNY   74  46  37 CALM      30.04F
$$

COZ041-046-047-076>085-087-088-281800-
...PIKES PEAK/PALMER DIVIDE AND SOUTHERN FOOTHILLS...

CITY           SKY/WX    TMP DP  RH WIND       PRES   REMARKS
COLO. SPRINGS  PTSUNNY   70  41  34 VRB6      30.09S
A. F. ACADEMY  MOSUNNY   69  31  24 VRB5      30.08F
ELLICOTT       MOSUNNY  N/A N/A N/A SW6       30.08
FALCON         MOSUNNY   69  30  23 CALM      30.13F
FORT CARSON    MOSUNNY   68  47  47 S8        30.06F
LIMON          SUNNY     70  46  42 VRB6      30.05S
MONUMENT HILL  MOSUNNY   68  32  26 S7        30.13S
TRINIDAD       CLOUDY    69  49  48 NW7       30.08S
$$

COZ042>045-048>051-090-091-281800-
...NORTHEAST COLORADO...

CITY           SKY/WX    TMP DP  RH WIND       PRES   REMARKS
GREELEY ARPT   SUNNY     70  54  56 CALM      30.03S
AKRON          SUNNY     69  55  60 N12       30.02F
BURLINGTON     SUNNY     72  55  55 CALM      30.01F
WRAY           PTSUNNY   71  56  59 W3        30.00S
STERLING       SUNNY     70  55  60 NE5       29.99S
HOLYOKE        PTSUNNY   72  59  64 CALM      30.01R
FORT MORGAN    SUNNY     69  56  63 S6        30.03R
$$

COZ086-089-092>099-281800-
...SOUTHEAST COLORADO...

CITY           SKY/WX    TMP DP  RH WIND       PRES   REMARKS
PUEBLO         MOSUNNY   70  48  45 W6        30.01F
LA JUNTA       SUNNY     70  54  56 VRB3      30.01R
LAMAR          SUNNY     76  57  51 VRB5      29.96F
SPRINGFIELD      N/A     72  60  66 S26G35    30.02F
$$



USA.gov is the U.S. government's official web portal to all federal, state and local government web resources and services.